EW5212 Weather Reports


time (UTC)temp
F
wind
direction
speed
knots
gust
knots
rain 1hr
in
rain 24hr
in
rain mn
in
humidity
%
barometer
mb
20260901065515 71 0.0 0.0 0.00 0.00 0.00 99 1018.7
20260901064515 71 0.0 0.0 0.00 0.00 0.00 99 1018.8
20260901063517 71 0.0 0.0 0.00 0.00 0.00 99 1018.8
20260901062517 71 0.0 0.0 0.00 0.00 0.00 99 1018.9
20260901061517 71 0.0 0.0 0.00 0.00 0.00 99 1018.9
20260901060517 71 0.0 0.0 0.00 0.00 0.00 99 1019.0
20260901055517 71 0.0 0.0 0.00 0.00 0.00 98 1019.0
20260901054517 72 0.0 0.0 0.00 0.00 0.00 98 1019.1
20260901053537 72 0.0 0.0 0.00 0.00 0.00 98 1019.1
20260901052517 72 0.0 0.0 0.00 0.00 0.00 98 1019.1
20260901051517 72 0.0 0.0 0.00 0.00 0.00 98 1019.3
20260901050517 72 0.0 0.0 0.00 0.00 0.00 98 1019.4
20260901045517 72 0.0 0.0 0.00 0.00 0.00 98 1019.5
20260901044517 73 0.0 0.0 0.00 0.00 0.00 98 1019.5
20260901043517 73 0.0 0.0 0.00 0.00 0.00 98 1019.5
20260901042517 73 0.0 0.0 0.00 0.00 0.00 98 1019.5
20260901041537 73 0.0 0.0 0.00 0.00 0.00 97 1019.4
20260901040537 73 0.0 0.0 0.00 0.00 0.00 97 1019.3
20260901040016 73 0.0 0.0 0.00 0.00 0.00 97 1019.3
20260901035015 74 0.0 0.0 0.00 0.00 0.00 97 1019.3
20260901034016 74 0.0 0.0 0.00 0.00 0.00 97 1019.2
20260901033015 74 0.0 0.0 0.00 0.00 0.00 97 1019.2
20260901032015 74 0.0 0.0 0.00 0.00 0.00 97 1019.2
20260901031015 75 0.0 0.0 0.00 0.00 0.00 96 1019.2
20260901030057 75 0.0 0.0 0.00 0.00 0.00 96 1019.3
20260901025015 75 0.0 0.0 0.00 0.00 0.00 96 1019.4
20260901024015 75 0.0 0.0 0.00 0.00 0.00 96 1019.2
20260901023015 75 0.0 0.0 0.00 0.00 0.00 95 1019.1
20260901022036 76 0.0 0.0 0.00 0.00 0.00 95 1019.4
20260901021015 76 0.0 0.0 0.00 0.00 0.00 95 1019.6
20260901020035 76 0.0 0.0 0.00 0.00 0.00 95 1019.7
20260901015015 76 0.0 0.0 0.00 0.00 0.00 95 1019.5
20260901014016 76 0.0 0.9 0.00 0.00 0.00 94 1019.4
20260901013015 77 0.0 0.0 0.00 0.00 0.00 94 1019.3
20260901012015 77 0.0 0.0 0.00 0.00 0.00 94 1019.2
20260901011015 77 0.0 0.0 0.00 0.00 0.00 94 1019.2
20260901010015 78 0.0 0.0 0.00 0.00 0.00 94 1019.1
20260901005015 78 0.0 0.0 0.00 0.00 0.00 94 1019.1
20260901004015 78 0.0 0.0 0.00 0.00 0.00 93 1019.1
20260901003015 78 0.0 0.0 0.00 0.00 0.00 93 1019.2
20260901002015 78 0.0 0.0 0.00 0.00 0.00 92 1019.1
20260901001015 79 0.0 0.0 0.00 0.00 0.00 92 1019.0
20260901000035 79 0.0 0.0 0.00 0.00 0.00 91 1018.9
20260831235016 80 0.0 0.0 0.00 0.00 0.00 89 1018.8
20260831234016 80 0.0 0.0 0.00 0.00 0.00 89 1018.8
20260831233055 81 0.0 0.0 0.00 0.00 0.00 89 1018.8
20260831232015 82 0.0 0.0 0.00 0.00 0.00 88 1018.8
20260831231015 82 0.0 0.0 0.00 0.00 0.00 87 1018.8
20260831230015 84 0.0 0.0 0.00 0.00 0.00 84 1018.7
20260831225015 85 0.0 0.0 0.00 0.00 0.00 81 1018.7
20260831224015 86 0.0 0.0 0.00 0.00 0.00 82 1018.7
20260831223015 86 0.0 0.0 0.00 0.00 0.00 82 1018.8
20260831222015 85 0.0 0.0 0.00 0.00 0.00 82 1018.8
20260831221015 86 0.0 0.0 0.00 0.00 0.00 80 1018.9
20260831220015 87 0.0 0.0 0.00 0.00 0.00 79 1018.9
20260831215015 87 0.0 0.0 0.00 0.00 0.00 75 1018.9
20260831214035 89 0.0 0.0 0.00 0.00 0.00 73 1018.9
20260831213015 90 0.0 0.0 0.00 0.00 0.00 71 1018.7
20260831212055 92 0.0 0.0 0.00 0.00 0.00 67 1018.8
20260831211015 91 0.0 1.7 0.00 0.00 0.00 67 1018.6
20260831210015 93 0.0 3.5 0.00 0.00 0.00 64 1018.7
20260831205016 92 0.0 0.9 0.00 0.00 0.00 68 1018.8
20260831204015 92 0.0 0.9 0.00 0.00 0.00 68 1018.8
20260831203015 91 0.0 0.9 0.00 0.00 0.00 68 1018.8
20260831202015 91 0.0 0.9 0.00 0.00 0.00 66 1018.8
20260831201015 92 45 0.9 1.7 0.00 0.00 0.00 64 1018.9
20260831200035 92 45 0.9 1.7 0.00 0.00 0.00 63 1018.9
20260831195015 92 0.0 0.9 0.00 0.00 0.00 66 1019.0
20260831194015 93 45 0.9 1.7 0.00 0.00 0.00 62 1019.0
20260831193015 94 225 0.9 3.5 0.00 0.00 0.00 65 1019.1
20260831192015 93 338 0.9 1.7 0.00 0.00 0.00 65 1019.1
20260831191017 93 0.0 1.7 0.00 0.00 0.00 63 1019.1
20260831190017 92 0 0.9 0.9 0.00 0.00 0.00 67 1019.3
20260831185017 92 45 0.9 1.7 0.00 0.00 0.00 64 1019.4
20260831184017 93 0.0 1.7 0.00 0.00 0.00 65 1019.5
20260831183017 92 45 0.9 0.9 0.00 0.00 0.00 63 1019.5
20260831182017 92 0.0 0.9 0.00 0.00 0.00 66 1019.5
20260831181038 92 45 0.9 2.6 0.00 0.00 0.00 67 1019.6
20260831180037 92 0.0 1.7 0.00 0.00 0.00 68 1019.7
20260831175037 92 0.0 0.9 0.00 0.00 0.00 70 1019.7
20260831174017 91 0.0 0.9 0.00 0.00 0.00 67 1019.9
20260831173017 92 113 0.9 2.6 0.00 0.00 0.00 67 1019.9
20260831172018 93 23 0.9 1.7 0.00 0.00 0.00 68 1020.0
20260831171037 91 0.0 0.0 0.00 0.00 0.00 69 1020.1
20260831170017 91 0.0 0.9 0.00 0.00 0.00 68 1020.1
20260831165017 90 0.0 0.9 0.00 0.00 0.00 71 1020.1
20260831164015 90 45 0.9 0.9 0.00 0.00 0.00 71 1020.2
20260831163018 90 0.0 0.9 0.00 0.00 0.00 72 1020.4
20260831162017 89 68 0.9 1.7 0.00 0.00 0.00 72 1020.4
20260831161017 90 0.0 1.7 0.00 0.00 0.00 69 1020.5
20260831160037 88 0.0 0.9 0.00 0.00 0.00 73 1020.6
20260831155016 88 315 0.9 0.9 0.00 0.00 0.00 74 1020.4
20260831154017 88 293 0.9 1.7 0.00 0.00 0.00 74 1020.5
20260831153037 89 0.0 0.9 0.00 0.00 0.00 72 1020.5
20260831152017 88 90 0.9 2.6 0.00 0.00 0.00 73 1020.5
20260831151017 87 0.0 2.6 0.00 0.00 0.00 74 1020.5
20260831150017 86 0.0 1.7 0.00 0.00 0.00 76 1020.3
20260831145037 85 0.0 0.0 0.00 0.00 0.00 78 1020.3
20260831144037 85 0.0 0.0 0.00 0.00 0.00 80 1020.4
20260831143016 84 45 0.9 0.9 0.00 0.00 0.00 79 1020.4
20260831142017 83 45 0.9 2.6 0.00 0.00 0.00 80 1020.4
20260831141037 84 0.0 0.9 0.00 0.00 0.00 81 1020.4
20260831140017 83 293 0.9 1.7 0.00 0.00 0.00 82 1020.3
20260831135019 83 23 0.9 2.6 0.00 0.00 0.00 80 1020.4
20260831134017 82 23 0.9 3.5 0.00 0.00 0.00 80 1020.5
20260831133017 81 270 0.9 1.7 0.00 0.00 0.00 83 1020.4
20260831132017 81 0.0 1.7 0.00 0.00 0.00 85 1020.6
20260831131017 79 270 0.9 2.6 0.00 0.00 0.00 87 1020.4
20260831130057 79 248 0.9 2.6 0.00 0.00 0.00 87 1020.4
20260831125017 77 0.0 1.7 0.00 0.00 0.00 91 1020.3
20260831124016 76 248 0.9 3.5 0.00 0.00 0.00 92 1020.4
20260831123037 74 0.0 2.6 0.00 0.00 0.00 95 1020.5
20260831122017 73 0.0 2.6 0.00 0.00 0.00 97 1020.3
20260831121017 72 0.0 0.0 0.00 0.00 0.00 99 1020.2
20260831120017 72 0.0 0.9 0.00 0.00 0.00 100 1020.0
20260831115017 71 0.0 0.0 0.00 0.00 0.00 99 1020.0
20260831114016 70 0.0 0.0 0.00 0.00 0.00 99 1020.0
20260831113016 70 0.0 0.0 0.00 0.00 0.00 99 1020.0
20260831112016 70 0.0 0.0 0.00 0.00 0.00 98 1019.8
20260831111036 70 0.0 0.0 0.00 0.00 0.00 98 1019.7
20260831110016 70 0.0 0.0 0.00 0.00 0.00 98 1019.6
20260831105017 70 0.0 0.0 0.00 0.00 0.00 98 1019.6
20260831104017 70 0.0 0.0 0.00 0.00 0.00 98 1019.6
20260831103016 70 0.0 0.0 0.00 0.00 0.00 98 1019.5
20260831102016 71 0.0 0.0 0.00 0.00 0.00 98 1019.6
20260831101017 71 0.0 0.0 0.00 0.00 0.00 97 1019.5
20260831100056 71 0.0 0.0 0.00 0.00 0.00 97 1019.2
20260831095016 71 0.0 0.0 0.00 0.00 0.00 97 1019.3
20260831094016 72 0.0 0.0 0.00 0.00 0.00 97 1019.3
20260831093016 72 0.0 0.0 0.00 0.00 0.00 96 1019.3
20260831092016 72 0.0 0.0 0.00 0.00 0.00 96 1019.3
20260831091016 72 0.0 0.0 0.00 0.00 0.00 96 1019.3
20260831090016 73 0.0 0.0 0.00 0.00 0.00 95 1019.4
20260831085056 73 0.0 0.0 0.00 0.00 0.00 95 1019.3
20260831084016 74 0.0 0.0 0.00 0.00 0.00 94 1019.3
20260831083036 74 0.0 0.9 0.00 0.00 0.00 93 1019.4
20260831082016 74 0.0 0.0 0.00 0.00 0.00 92 1019.3
20260831081016 75 0.0 0.9 0.00 0.00 0.00 91 1019.3
20260831080016 75 0.0 2.6 0.00 0.00 0.00 91 1019.2
20260831075016 75 0.0 2.6 0.00 0.00 0.00 91 1019.1
20260831074016 75 0.0 0.9 0.00 0.00 0.00 90 1019.2
20260831073017 75 0.0 3.5 0.00 0.00 0.00 91 1019.3
20260831072016 75 0.0 1.7 0.00 0.00 0.00 91 1019.3
20260831071017 75 0.0 0.9 0.00 0.00 0.00 91 1019.4